Date String (YYYY-MM-DD hh:mm:ss) UTC,Instrument flags,absolute air pressure of the measurement (hPa),sample flow rate (lpm),inlet stack bypass flow (lpm),air temperature of the measurement (°C),ambient temperature measured by the external sensor (°C),aerosol sample conditioner tube jacket temperature (°C),OPC LED temperature (°C),internal box temperature (°C),relative humidity of the measurement (%),span deviation,mass concentration of particles derived from Lorenz-Mie calculation of OPC scattering (μg/m³),mass concentration of particles derived from Lorenz-Mie calculation of OPC scattering (μg/m³),mass concentration of particles derived from Lorenz-Mie calculation of OPC scattering (μg/m³)
DateTimeUTC,F1_M11,P_M11,Q1_M11,Q2_M11,T1_M11,T2_M11,T3_M11,T4_M11,T5_M11,U1_M11,ZSPAN_M11,X0_M11,X2_M11,X1_M11
2024-02-11 16:00:00,SystemResetWarning,0829.1,4.99,000.00,018.2,017.8,000.0,026.7,020.0,14.5,0000.0,0007.59,0004.88,0004.76
2024-02-11 16:01:00,SystemResetWarning,0829.1,5.00,000.00,018.2,017.8,000.0,026.7,020.0,14.7,0000.0,0007.61,0004.88,0004.77
2024-02-11 16:02:00,SystemResetWarning,0829.2,5.01,000.00,018.2,017.8,000.0,026.7,020.0,14.7,0000.0,0007.65,0004.89,0004.78
2024-02-11 16:03:00,SystemResetWarning,0829.2,5.00,000.00,018.2,017.8,000.0,026.7,020.0,14.7,0000.0,0007.76,0004.92,0004.79
2024-02-11 16:04:00,SystemResetWarning,0829.2,5.01,000.00,018.2,017.8,000.0,026.7,020.0,14.6,0000.0,0008.06,0004.95,0004.80
2024-02-11 16:05:00,SystemResetWarning,0829.2,5.00,000.00,018.2,017.8,000.0,026.7,020.0,14.5,0000.0,0008.11,0004.99,0004.82
2024-02-11 16:06:00,SystemResetWarning,0829.2,5.00,000.00,018.2,017.9,000.0,026.7,020.0,14.6,0000.0,0007.95,0005.01,0004.84
2024-02-11 16:07:00,SystemResetWarning,0829.2,5.00,000.00,018.2,017.9,000.0,026.7,020.0,14.5,0000.0,0007.45,0005.05,0004.87
2024-02-11 16:08:00,SystemResetWarning,0829.3,5.00,000.00,018.2,017.9,000.0,026.7,020.0,14.4,0000.0,0007.48,0005.08,0004.89
2024-02-11 16:09:00,SystemResetWarning,0829.3,5.00,000.00,018.2,017.9,000.0,026.7,020.1,14.5,0000.0,0007.42,0005.09,0004.91
2024-02-11 16:10:00,SystemResetWarning,0829.4,5.00,000.00,018.2,017.9,000.0,026.7,020.0,14.5,0000.0,0007.42,0005.11,0004.93
2024-02-11 16:11:00,SystemResetWarning,0829.3,4.99,000.00,018.2,017.9,000.0,026.7,020.0,14.7,0000.0,0007.49,0005.15,0004.95
2024-02-11 16:12:00,SystemResetWarning,0829.4,4.99,000.00,018.2,017.9,000.0,026.7,020.0,14.9,0000.0,0007.59,0005.21,0004.98
2024-02-11 16:13:00,SystemResetWarning,0829.3,5.01,000.00,018.2,017.9,000.0,026.7,020.0,15.1,0000.0,0007.60,0005.23,0004.99
2024-02-11 16:14:00,SystemResetWarning,0829.3,5.02,000.00,018.2,017.9,000.0,026.7,020.0,15.2,0000.0,0007.63,0005.25,0005.01
2024-02-11 16:15:00,SystemResetWarning,0829.4,4.99,000.00,018.2,017.9,000.0,026.7,020.0,15.0,0000.0,0007.60,0005.27,0005.02
2024-02-11 16:16:00,SystemResetWarning,0829.3,4.99,000.00,018.3,017.9,000.0,026.7,020.1,15.1,0000.0,0007.47,0005.26,0005.03
2024-02-11 16:17:00,SystemResetWarning,0829.3,5.01,000.00,018.3,017.9,000.0,026.7,020.1,15.1,0000.0,0007.44,0005.27,0005.05
2024-02-11 16:18:00,SystemResetWarning,0829.3,5.01,000.00,018.3,017.9,000.0,026.7,020.1,15.1,0000.0,0007.38,0005.27,0005.05
2024-02-11 16:19:00,SystemResetWarning,0829.3,5.01,000.00,018.3,017.9,000.0,026.7,020.1,14.9,0000.0,0007.54,0005.27,0005.06
2024-02-11 16:20:00,SystemResetWarning,0829.3,5.00,000.00,018.3,017.9,000.0,026.7,020.0,14.8,0000.0,0007.61,0005.30,0005.08
2024-02-11 16:21:00,SystemResetWarning,0829.4,4.99,000.00,018.3,017.9,000.0,026.7,020.0,14.9,0000.0,0007.69,0005.31,0005.08
2024-02-11 16:22:00,SystemResetWarning,0829.4,5.00,000.00,018.3,017.9,000.0,026.7,020.0,14.9,0000.0,0007.97,0005.32,0005.10
2024-02-11 16:23:00,SystemResetWarning,0829.4,5.00,000.00,018.3,017.9,000.0,026.7,020.0,14.8,0000.0,0009.01,0005.31,0005.11
2024-02-11 16:24:00,SystemResetWarning,0829.4,5.01,000.00,018.3,017.9,000.0,026.7,020.0,14.8,0000.0,0009.08,0005.34,0005.14
2024-02-11 16:25:00,SystemResetWarning,0829.4,5.00,000.00,018.3,017.9,000.0,026.7,020.1,14.8,0000.0,0009.08,0005.35,0005.15
2024-02-11 16:26:00,SystemResetWarning,0829.4,5.00,000.00,018.3,017.9,000.0,026.7,020.0,14.7,0000.0,0008.97,0005.36,0005.17
2024-02-11 16:27:00,SystemResetWarning,0829.4,5.00,000.00,018.3,017.9,000.0,026.7,020.1,14.8,0000.0,0009.65,0005.41,0005.19
2024-02-11 16:28:00,SystemResetWarning,0829.4,4.99,000.00,018.3,017.9,000.0,026.7,020.1,14.7,0000.0,0009.79,0005.44,0005.21
2024-02-11 16:29:00,SystemResetWarning,0829.4,5.00,000.00,018.3,017.9,000.0,026.7,020.0,14.7,0000.0,0009.85,0005.47,0005.21
2024-02-11 16:30:00,SystemResetWarning,0829.4,5.00,000.00,018.3,017.9,000.0,026.7,020.0,14.8,0000.0,0010.37,0005.46,0005.21
2024-02-11 16:31:00,SystemResetWarning,0829.4,5.00,000.00,018.3,017.9,000.0,026.7,020.1,14.6,0000.0,0010.61,0005.47,0005.23
2024-02-11 16:32:00,SystemResetWarning,0829.4,5.00,000.00,018.3,017.9,000.0,026.7,020.1,14.5,0000.0,0010.69,0005.49,0005.24
2024-02-11 16:33:00,SystemResetWarning,0829.4,5.00,000.00,018.3,017.9,000.0,026.7,020.1,14.6,0000.0,0011.57,0005.50,0005.24
2024-02-11 16:34:00,SystemResetWarning,0829.4,5.00,000.00,018.3,017.9,000.0,026.7,020.1,14.5,0000.0,0010.97,0005.50,0005.24
2024-02-11 16:35:00,SystemResetWarning,0829.4,5.01,000.00,018.3,017.9,000.0,026.7,020.1,14.6,0000.0,0010.93,0005.49,0005.22
2024-02-11 16:36:00,SystemResetWarning,0829.3,5.01,000.00,018.3,017.9,000.0,026.7,020.1,14.5,0000.0,0011.09,0005.52,0005.22
2024-02-11 16:37:00,SystemResetWarning,0829.4,5.00,000.00,018.3,017.9,000.0,026.7,020.1,14.5,0000.0,0011.11,0005.52,0005.22
2024-02-11 16:38:00,SystemResetWarning,0829.4,5.01,000.00,018.3,017.9,000.0,026.7,020.1,14.4,0000.0,0010.56,0005.49,0005.21
2024-02-11 16:39:00,SystemResetWarning,0829.4,5.00,000.00,018.3,017.9,000.0,026.7,020.1,14.3,0000.0,0010.46,0005.51,0005.19
2024-02-11 16:40:00,SystemResetWarning,0829.4,5.00,000.00,018.3,017.9,000.0,026.7,020.1,14.5,0000.0,0010.48,0005.52,0005.19
2024-02-11 16:41:00,SystemResetWarning,0829.4,5.00,000.00,018.3,017.9,000.0,026.7,020.1,14.4,0000.0,0009.78,0005.52,0005.18
2024-02-11 16:42:00,SystemResetWarning,0829.4,5.00,000.00,018.3,017.9,000.0,026.7,020.1,14.3,0000.0,0009.93,0005.50,0005.17
2024-02-11 16:43:00,SystemResetWarning,0829.4,5.00,000.00,018.3,017.9,000.0,026.7,020.1,14.2,0000.0,0010.63,0005.49,0005.15
2024-02-11 16:44:00,SystemResetWarning,0829.4,5.00,000.00,018.3,017.9,000.0,026.7,020.1,14.2,0000.0,0009.77,0005.48,0005.13
2024-02-11 16:45:00,SystemResetWarning,0829.4,4.99,000.00,018.3,017.9,000.0,026.7,020.1,14.1,0000.0,0009.29,0005.45,0005.13
2024-02-11 16:46:00,SystemResetWarning,0829.4,5.00,000.00,018.3,017.9,000.0,026.7,020.1,14.5,0000.0,0009.20,0005.43,0005.12
2024-02-11 16:47:00,SystemResetWarning,0829.4,5.02,000.00,018.3,017.9,000.0,026.7,020.1,14.6,0000.0,0009.26,0005.37,0005.11
2024-02-11 16:48:00,SystemResetWarning,0829.3,4.99,000.00,018.3,017.9,000.0,026.7,020.1,14.3,0000.0,0009.19,0005.34,0005.10
2024-02-11 16:49:00,SystemResetWarning,0829.4,5.00,000.00,018.3,017.9,000.0,026.8,020.1,14.4,0000.0,0009.15,0005.34,0005.10
2024-02-11 16:50:00,SystemResetWarning,0829.4,5.00,000.00,018.3,017.9,000.0,026.7,020.1,14.6,0000.0,0009.25,0005.32,0005.10
2024-02-11 16:51:00,SystemResetWarning,0829.4,5.01,000.00,018.3,017.9,000.0,026.8,020.1,14.3,0000.0,0009.28,0005.32,0005.10
2024-02-11 16:52:00,SystemResetWarning,0829.4,5.01,000.00,018.3,017.9,000.0,026.8,020.1,14.1,0000.0,0009.28,0005.31,0005.10
2024-02-11 16:53:00,SystemResetWarning,0829.3,5.00,000.00,018.3,018.0,000.0,026.8,020.1,14.0,0000.0,0009.38,0005.30,0005.09
2024-02-11 16:54:00,SystemResetWarning,0829.4,5.00,000.00,018.3,018.0,000.0,026.8,020.1,14.1,0000.0,0008.47,0005.26,0005.09
2024-02-11 16:55:00,SystemResetWarning,0829.4,5.00,000.00,018.4,018.0,000.0,026.8,020.1,14.1,0000.0,0008.31,0005.28,0005.10
2024-02-11 16:56:00,SystemResetWarning,0829.3,4.99,000.00,018.4,018.0,000.0,026.8,020.1,14.3,0000.0,0008.32,0005.31,0005.11
2024-02-11 16:57:00,SystemResetWarning,0829.4,5.00,000.00,018.4,018.0,000.0,026.8,020.1,14.4,0000.0,0008.26,0005.31,0005.11
2024-02-11 16:58:00,SystemResetWarning,0829.3,5.00,000.00,018.4,018.0,000.0,026.8,020.2,14.4,0000.0,0008.15,0005.33,0005.12
2024-02-11 16:59:00,SystemResetWarning,0829.3,5.00,000.00,018.4,018.0,000.0,026.8,020.2,14.3,0000.0,0008.33,0005.36,0005.13
